Location: Caltech
(34.1382°N, 118.1253°W)
Time: 09:02:28
(UTC-07:00)

Cosmos 1980 Rocket - Visible Passes

Search period start: 28 March 2015 00:00
Search period end: 07 April 2015 00:00
Orbit: 829 x 851 km, 71.0° (Epoch: 27 March)

Date Brightness Start Highest point End Pass type
(mag) Time Alt. Az. Time Alt. Az. Time Alt. Az.
29 Mar 5.7 19:41:06 10° W 19:42:10 10° W 19:42:46 10° WSW visible
02 Apr 4.4 06:10:13 10° SSE 06:14:53 29° ESE 06:19:41 10° NE visible
03 Apr 4.5 05:54:45 10° SSE 05:59:17 27° ESE 06:03:58 10° NE visible
04 Apr 4.5 05:39:17 10° SSE 05:43:41 25° ESE 05:48:15 10° NE visible
05 Apr 4.5 05:23:51 10° SSE 05:28:05 23° ESE 05:32:30 10° NE visible
06 Apr 4.6 05:08:26 10° SSE 05:12:29 22° ESE 05:16:45 10° NE visible
